Barnwell, SC

1:48 PM EDT on July 28, 2016 (GMT -0400)
Barnwell County

Weather History for KBNL - January, 2014

Change the Weather History Date:

Thursday, January 16, 2014

  Actual Average (KOGB) Record (KOGB)
Temperature  
Mean Temperature 39 °F 46 °F  
Max Temperature 48 °F 56 °F 81 °F (2013)
Min Temperature 30 °F 35 °F 17 °F (1972)
Degree Days  
Heating Degree Days 26 19  
Month to date heating degree days 316  
Since 1 July heating degree days 1220  
Cooling Degree Days 0 0  
Month to date cooling degree days 0  
Year to date cooling degree days 0  
Moisture  
Dew Point 24 °F    
Average Humidity 58    
Maximum Humidity 86    
Minimum Humidity 34    
Precipitation  
Precipitation 0.00 in 0.11 in 0.63 in (1987)
Month to date precipitation 1.91  
Year to date precipitation 1.91  
Sea Level Pressure  
Sea Level Pressure 30.04 in    
Wind  
Wind Speed 3 mph (WNW)    
Max Wind Speed 10 mph    
Max Gust Speed -    
Visibility 10 miles    
Events      
T = Trace of Precipitation, MM = Missing Value Source: NWS Daily Summary

Daily Weather History Graph

Daily Weather History Graph

Search for Another Location

Airport or City:

Trip Planner

Search our weather history database for the weather conditions in past years. The results will help you decide how hot, cold, wet, or windy it might be!

Date:

Astronomy

Jan. 16, 2014 Rise Set
Actual Time 7:28 AM EST 5:42 PM EST
Civil Twilight 7:02 AM EST 6:08 PM EST
Nautical Twilight 6:31 AM EST 6:39 PM EST
Astronomical Twilight 6:01 AM EST 7:09 PM EST
Moon 6:27 PM EST (1/16) 7:25 AM EST (1/16)
Length of Visible Light 11h 06m
Length of Day
10h 13m
Full, 100% of the Moon is Illuminated
Jan 16
Full
Jan 24
Last Quarter
Jan 30
New
Feb 6
First Quarter
Feb 14
Full

Hourly Weather History & Observations

Time (EST) Temp. Windchill Dew Point Humidity Pressure Visibility Wind Dir Wind Speed Gust Speed Precip Events Conditions
12:15 AM 44.6 °F 40.2 °F 24.8 °F 46% 29.97 in 10.0 mi WNW 8.1 mph - N/A   Mostly Cloudy
12:35 AM 42.8 °F 38.6 °F 23.0 °F 46% 29.98 in 10.0 mi WNW 6.9 mph - N/A   Mostly Cloudy
12:55 AM 42.8 °F 38.0 °F 23.0 °F 46% 29.98 in 10.0 mi WNW 8.1 mph - N/A   Mostly Cloudy
1:15 AM 42.8 °F 40.1 °F 23.0 °F 46% 29.97 in 10.0 mi NW 4.6 mph - N/A   Mostly Cloudy
1:35 AM 41.0 °F - 21.2 °F 45% 29.97 in 10.0 mi Calm Calm - N/A   Scattered Clouds
1:55 AM 39.2 °F 34.2 °F 21.2 °F 49% 29.98 in 10.0 mi NW 6.9 mph - N/A   Clear
2:15 AM 39.2 °F 35.0 °F 21.2 °F 49% 29.98 in 10.0 mi NW 5.8 mph - N/A   Clear
2:35 AM 37.4 °F - 21.2 °F 52% 29.99 in 10.0 mi Calm Calm - N/A   Clear
2:55 AM 37.4 °F 32.8 °F 21.2 °F 52% 29.99 in 10.0 mi WNW 5.8 mph - N/A   Clear
3:15 AM 37.4 °F 32.8 °F 21.2 °F 52% 29.99 in 10.0 mi WNW 5.8 mph - N/A   Clear
3:35 AM 35.6 °F 30.7 °F 23.0 °F 60% 30.00 in 10.0 mi West 5.8 mph - N/A   Clear
3:55 AM 35.6 °F 32.8 °F 23.0 °F 60% 30.01 in 10.0 mi West 3.5 mph - N/A   Clear
4:15 AM 35.6 °F - 23.0 °F 60% 30.01 in 10.0 mi Calm Calm - N/A   Clear
4:35 AM 33.8 °F - 23.0 °F 65% 30.01 in 10.0 mi Calm Calm - N/A   Clear
4:55 AM 33.8 °F - 23.0 °F 65% 30.01 in 10.0 mi Calm Calm - N/A   Clear
5:15 AM 33.8 °F - 23.0 °F 65% 30.01 in 10.0 mi Calm Calm - N/A   Clear
5:35 AM 32.0 °F - 24.8 °F 75% 30.02 in 10.0 mi Calm Calm - N/A   Clear
5:55 AM 32.0 °F - 24.8 °F 75% 30.02 in 10.0 mi Calm Calm - N/A   Clear
6:15 AM 32.0 °F - 24.8 °F 75% 30.02 in 10.0 mi Calm Calm - N/A   Clear
6:35 AM 32.0 °F - 24.8 °F 75% 30.03 in 10.0 mi Calm Calm - N/A   Clear
6:55 AM 32.0 °F - 24.8 °F 75% 30.04 in 10.0 mi Calm Calm - N/A   Clear
7:15 AM 30.2 °F - 24.8 °F 80% 30.04 in 10.0 mi Calm Calm - N/A   Clear
7:35 AM 30.2 °F - 26.6 °F 86% 30.05 in 10.0 mi Calm Calm - N/A   Clear
7:55 AM 32.0 °F - 26.6 °F 80% 30.05 in 10.0 mi Calm Calm - N/A   Clear
8:15 AM 32.0 °F - 26.6 °F 80% 30.06 in 10.0 mi Calm Calm - N/A   Clear
8:35 AM 32.0 °F - 26.6 °F 80% 30.06 in 10.0 mi Calm Calm - N/A   Clear
8:55 AM 33.8 °F - 26.6 °F 75% 30.07 in 10.0 mi Calm Calm - N/A   Clear
9:15 AM 35.6 °F - 24.8 °F 65% 30.06 in 10.0 mi Calm Calm - N/A   Clear
9:35 AM 35.6 °F - 26.6 °F 70% 30.07 in 10.0 mi Calm Calm - N/A   Clear
9:55 AM 37.4 °F - 26.6 °F 65% 30.07 in 10.0 mi Calm Calm - N/A   Clear
10:15 AM 39.2 °F - 26.6 °F 61% 30.08 in 10.0 mi Calm Calm - N/A   Clear
10:35 AM 39.2 °F 34.2 °F 26.6 °F 61% 30.09 in 10.0 mi NW 6.9 mph - N/A   Clear
10:55 AM 41.0 °F - 26.6 °F 57% 30.09 in 10.0 mi Calm Calm - N/A   Clear
11:15 AM 41.0 °F - 26.6 °F 57% 30.08 in 10.0 mi Calm Calm - N/A   Clear
11:35 AM 42.8 °F - 26.6 °F 53% 30.07 in 10.0 mi Calm Calm - N/A   Clear
11:55 AM 42.8 °F - 26.6 °F 53% 30.06 in 10.0 mi Calm Calm - N/A   Clear
12:15 PM 44.6 °F - 26.6 °F 49% 30.05 in 10.0 mi Calm Calm - N/A   Clear
12:35 PM 44.6 °F 41.4 °F 26.6 °F 49% 30.04 in 10.0 mi NNE 5.8 mph - N/A   Clear
12:55 PM 46.4 °F 44.3 °F 24.8 °F 43% 30.03 in 10.0 mi WNW 4.6 mph - N/A   Partly Cloudy
1:15 PM 46.4 °F - 23.0 °F 40% 30.02 in 10.0 mi Calm Calm - N/A   Clear
1:35 PM 46.4 °F - 23.0 °F 40% 30.01 in 10.0 mi Calm Calm - N/A   Clear
1:55 PM 46.4 °F 41.5 °F 23.0 °F 40% 30.01 in 10.0 mi West 10.4 mph - N/A   Clear
2:15 PM 48.2 °F - 23.0 °F 37% 30.01 in 10.0 mi SW 5.8 mph - N/A   Clear
2:35 PM 48.2 °F - 23.0 °F 37% 30.01 in 10.0 mi Calm Calm - N/A   Clear
2:55 PM 46.4 °F 43.5 °F 23.0 °F 40% 30.01 in 10.0 mi WSW 5.8 mph - N/A   Clear
3:55 PM 48.2 °F - 23.0 °F 37% 30.01 in 10.0 mi Calm Calm - N/A   Clear
4:15 PM 48.2 °F - 21.2 °F 34% 30.02 in 10.0 mi WSW 5.8 mph - N/A   Clear
4:35 PM 48.2 °F - 21.2 °F 34% 30.03 in 10.0 mi West 4.6 mph - N/A   Clear
4:55 PM 46.4 °F 42.4 °F 19.4 °F 34% 30.03 in 10.0 mi West 8.1 mph - N/A   Clear
5:15 PM 46.4 °F 45.2 °F 19.4 °F 34% 30.03 in 10.0 mi WSW 3.5 mph - N/A   Clear
5:35 PM 44.6 °F - 21.2 °F 39% 30.04 in 10.0 mi Calm Calm - N/A   Clear
5:55 PM 42.8 °F - 21.2 °F 42% 30.05 in 10.0 mi Calm Calm - N/A   Clear
6:15 PM 41.0 °F - 23.0 °F 49% 30.06 in 10.0 mi Calm Calm - N/A   Clear
6:35 PM 39.2 °F - 23.0 °F 52% 30.06 in 10.0 mi Calm Calm - N/A   Clear
6:55 PM 37.4 °F - 24.8 °F 60% 30.06 in 10.0 mi Calm Calm - N/A   Clear
7:15 PM 39.2 °F - 21.2 °F 49% 30.06 in 10.0 mi Calm Calm - N/A   Clear
7:35 PM 37.4 °F - 23.0 °F 56% 30.07 in 10.0 mi Calm Calm - N/A   Clear
7:55 PM 37.4 °F - 23.0 °F 56% 30.07 in 10.0 mi Calm Calm - N/A   Clear
8:15 PM 37.4 °F - 23.0 °F 56% 30.07 in 10.0 mi Calm Calm - N/A   Clear
8:35 PM 35.6 °F - 26.6 °F 70% 30.07 in 10.0 mi Calm Calm - N/A   Clear
8:55 PM 33.8 °F - 26.6 °F 75% 30.08 in 10.0 mi Calm Calm - N/A   Clear
9:15 PM 33.8 °F - 24.8 °F 70% 30.07 in 10.0 mi Calm Calm - N/A   Clear
9:35 PM 33.8 °F - 26.6 °F 75% 30.08 in 10.0 mi Calm Calm - N/A   Clear
9:55 PM 32.0 °F - 26.6 °F 80% 30.09 in 10.0 mi Calm Calm - N/A   Clear
10:15 PM 35.6 °F - 26.6 °F 70% 30.09 in 10.0 mi Calm Calm - N/A   Clear
10:35 PM 33.8 °F - 26.6 °F 75% 30.08 in 10.0 mi Calm Calm - N/A   Clear
10:55 PM 33.8 °F - 24.8 °F 70% 30.08 in 10.0 mi Calm Calm - N/A   Clear
11:15 PM 33.8 °F - 24.8 °F 70% 30.08 in 10.0 mi Calm Calm - N/A   Clear
11:35 PM 32.0 °F - 24.8 °F 75% 30.10 in 10.0 mi Calm Calm - N/A   Clear
11:55 PM 32.0 °F - 23.0 °F 69% 30.11 in 10.0 mi Calm Calm - N/A   Clear